Time,TemperatureF,DewpointF,PressureIn,WindDirection,WindDirectionDegrees,WindSpeedMPH,WindSpeedGustMPH,Humidity,HourlyPrecipIn,Conditions,Clouds,dailyrainin,SoftwareType,DateUTC
2013-10-27 00:00:00,47.5,33.5,29.90,West,271,0.0,1.0,58,0.00,,---,0.00,VWS V14.01,2013-10-27 04:00:00,
2013-10-27 00:01:00,47.5,33.5,29.90,West,271,0.0,1.0,58,0.00,,---,0.00,VWS V14.01,2013-10-27 04:01:00,
2013-10-27 00:06:00,47.5,33.9,29.90,West,271,0.0,0.0,59,0.00,,---,0.00,VWS V14.01,2013-10-27 04:06:00,
2013-10-27 00:11:00,47.4,34.2,29.90,West,271,0.0,0.0,60,0.00,,---,0.00,VWS V14.01,2013-10-27 04:11:00,
2013-10-27 00:16:00,47.3,34.5,29.90,West,271,0.0,0.0,61,0.00,,---,0.00,VWS V14.01,2013-10-27 04:16:00,
2013-10-27 00:21:00,47.1,33.9,29.90,West,271,0.0,0.0,60,0.00,,---,0.00,VWS V14.01,2013-10-27 04:21:00,
2013-10-27 00:26:00,46.9,33.3,29.90,West,271,0.0,0.0,59,0.00,,---,0.00,VWS V14.01,2013-10-27 04:26:00,
2013-10-27 00:31:00,46.8,33.7,29.89,West,271,0.0,0.0,60,0.00,,---,0.00,VWS V14.01,2013-10-27 04:31:00,
2013-10-27 00:36:00,46.8,34.9,29.89,West,271,0.0,0.0,63,0.00,,---,0.00,VWS V14.01,2013-10-27 04:36:00,
2013-10-27 00:41:00,46.6,33.9,29.89,West,271,0.0,0.0,61,0.00,,---,0.00,VWS V14.01,2013-10-27 04:41:00,
2013-10-27 00:46:00,46.5,34.6,29.89,West,271,0.0,0.0,63,0.00,,---,0.00,VWS V14.01,2013-10-27 04:46:00,
2013-10-27 00:51:00,46.5,35.8,29.89,West,271,0.0,0.0,66,0.00,,---,0.00,VWS V14.01,2013-10-27 04:51:00,
2013-10-27 00:56:00,46.3,35.2,29.89,West,271,0.0,0.0,65,0.00,,---,0.00,VWS V14.01,2013-10-27 04:56:00,
2013-10-27 01:01:00,46.2,35.1,29.89,West,271,0.0,0.0,65,0.00,,---,0.00,VWS V14.01,2013-10-27 05:01:00,
2013-10-27 01:06:00,46.1,34.2,29.89,West,271,0.0,0.0,63,0.00,,---,0.00,VWS V14.01,2013-10-27 05:06:00,
2013-10-27 01:11:00,46.1,34.2,29.89,West,271,0.0,0.0,63,0.00,,---,0.00,VWS V14.01,2013-10-27 05:11:00,
2013-10-27 01:16:00,46.1,34.2,29.89,West,271,1.0,1.0,63,0.00,,---,0.00,VWS V14.01,2013-10-27 05:16:00,
2013-10-27 01:21:00,46.1,35.4,29.89,West,271,0.0,1.0,66,0.00,,---,0.00,VWS V14.01,2013-10-27 05:21:00,
2013-10-27 01:26:00,45.9,34.4,29.89,West,271,0.0,1.0,64,0.00,,---,0.00,VWS V14.01,2013-10-27 05:26:00,
2013-10-27 01:31:00,45.9,34.0,29.89,West,271,0.0,0.0,63,0.00,,---,0.00,VWS V14.01,2013-10-27 05:31:00,
2013-10-27 01:36:00,45.9,34.0,29.89,West,271,0.0,0.0,63,0.00,,---,0.00,VWS V14.01,2013-10-27 05:36:00,
2013-10-27 01:41:00,46.0,34.1,29.89,West,271,0.0,0.0,63,0.00,,---,0.00,VWS V14.01,2013-10-27 05:41:00,
2013-10-27 01:46:00,46.0,34.1,29.89,West,271,0.0,0.0,63,0.00,,---,0.00,VWS V14.01,2013-10-27 05:46:00,
2013-10-27 01:51:00,46.0,34.5,29.89,West,271,0.0,0.0,64,0.00,,---,0.00,VWS V14.01,2013-10-27 05:51:00,
2013-10-27 01:56:00,46.0,34.5,29.89,West,271,0.0,0.0,64,0.00,,---,0.00,VWS V14.01,2013-10-27 05:56:00,
2013-10-27 02:01:00,45.9,35.6,29.88,West,271,0.0,0.0,67,0.00,,---,0.00,VWS V14.01,2013-10-27 06:01:00,
2013-10-27 02:06:00,45.8,35.5,29.88,West,271,0.0,0.0,67,0.00,,---,0.00,VWS V14.01,2013-10-27 06:06:00,
2013-10-27 02:11:00,45.7,34.6,29.88,West,271,0.0,0.0,65,0.00,,---,0.00,VWS V14.01,2013-10-27 06:11:00,
2013-10-27 02:16:00,45.8,34.7,29.88,SE,124,0.0,1.0,65,0.00,,---,0.00,VWS V14.01,2013-10-27 06:16:00,
2013-10-27 02:21:00,45.9,35.6,29.88,SE,124,0.0,1.0,67,0.00,,---,0.00,VWS V14.01,2013-10-27 06:21:00,
2013-10-27 02:26:00,45.7,35.8,29.88,SE,124,0.0,1.0,68,0.00,,---,0.00,VWS V14.01,2013-10-27 06:26:00,
2013-10-27 02:31:00,45.6,35.3,29.88,SE,124,0.0,0.0,67,0.00,,---,0.00,VWS V14.01,2013-10-27 06:31:00,
2013-10-27 02:36:00,45.6,34.9,29.88,SE,142,0.0,2.0,66,0.00,,---,0.00,VWS V14.01,2013-10-27 06:36:00,
2013-10-27 02:41:00,45.5,35.2,29.88,SE,142,0.0,2.0,67,0.00,,---,0.00,VWS V14.01,2013-10-27 06:41:00,
2013-10-27 02:46:00,45.5,35.6,29.88,SE,142,0.0,2.0,68,0.00,,---,0.00,VWS V14.01,2013-10-27 06:46:00,
2013-10-27 02:51:00,45.5,35.2,29.87,SE,142,0.0,2.0,67,0.00,,---,0.00,VWS V14.01,2013-10-27 06:51:00,
2013-10-27 02:56:00,45.4,34.7,29.87,SE,143,1.0,2.0,66,0.00,,---,0.00,VWS V14.01,2013-10-27 06:56:00,
2013-10-27 03:01:00,45.4,34.7,29.88,SE,142,0.0,0.0,66,0.00,,---,0.00,VWS V14.01,2013-10-27 07:01:00,
2013-10-27 03:06:00,45.5,34.8,29.87,SE,142,0.0,1.0,66,0.00,,---,0.00,VWS V14.01,2013-10-27 07:06:00,
2013-10-27 03:11:00,45.5,34.4,29.87,SE,142,0.0,1.0,65,0.00,,---,0.00,VWS V14.01,2013-10-27 07:11:00,
2013-10-27 03:16:00,45.6,33.8,29.87,West,276,0.0,1.0,63,0.00,,---,0.00,VWS V14.01,2013-10-27 07:16:00,
2013-10-27 03:21:00,45.9,34.0,29.87,SSE,156,0.0,1.0,63,0.00,,---,0.00,VWS V14.01,2013-10-27 07:21:00,
2013-10-27 03:26:00,45.9,34.4,29.87,SSE,159,0.0,1.0,64,0.00,,---,0.00,VWS V14.01,2013-10-27 07:26:00,
2013-10-27 03:31:00,45.9,34.4,29.87,SSE,159,0.0,0.0,64,0.00,,---,0.00,VWS V14.01,2013-10-27 07:31:00,
2013-10-27 03:36:00,45.8,34.7,29.87,ESE,106,0.0,0.0,65,0.00,,---,0.00,VWS V14.01,2013-10-27 07:36:00,
2013-10-27 03:41:00,45.9,33.2,29.87,SE,133,0.0,1.0,61,0.00,,---,0.00,VWS V14.01,2013-10-27 07:41:00,
2013-10-27 03:46:00,46.3,32.8,29.87,NW,323,0.0,2.0,59,0.00,,---,0.00,VWS V14.01,2013-10-27 07:46:00,
2013-10-27 03:51:00,47.0,32.6,29.87,West,259,3.0,4.0,57,0.00,,---,0.00,VWS V14.01,2013-10-27 07:51:00,
2013-10-27 03:56:00,47.7,32.3,29.87,SSE,150,0.0,4.0,55,0.00,,---,0.00,VWS V14.01,2013-10-27 07:56:00,
2013-10-27 04:01:00,47.8,32.4,29.87,WNW,287,3.0,4.0,55,0.00,,---,0.00,VWS V14.01,2013-10-27 08:01:00,
2013-10-27 04:06:00,48.0,33.1,29.87,WSW,257,0.0,3.0,56,0.00,,---,0.00,VWS V14.01,2013-10-27 08:06:00,
2013-10-27 04:11:00,47.6,32.2,29.87,SW,235,1.0,3.0,55,0.00,,---,0.00,VWS V14.01,2013-10-27 08:11:00,
2013-10-27 04:16:00,47.4,32.5,29.86,West,275,1.0,3.0,56,0.00,,---,0.00,VWS V14.01,2013-10-27 08:16:00,
2013-10-27 04:21:00,47.3,32.8,29.87,SE,142,0.0,3.0,57,0.00,,---,0.00,VWS V14.01,2013-10-27 08:21:00,
2013-10-27 04:26:00,47.1,31.8,29.86,SE,145,3.0,3.0,55,0.00,,---,0.00,VWS V14.01,2013-10-27 08:26:00,
2013-10-27 04:31:00,47.0,32.1,29.87,West,259,0.0,3.0,56,0.00,,---,0.00,VWS V14.01,2013-10-27 08:31:00,
2013-10-27 04:36:00,46.6,32.6,29.87,West,259,0.0,1.0,58,0.00,,---,0.00,VWS V14.01,2013-10-27 08:36:00,
2013-10-27 04:41:00,46.3,32.3,29.87,SSW,194,0.0,2.0,58,0.00,,---,0.00,VWS V14.01,2013-10-27 08:41:00,
2013-10-27 04:46:00,46.1,32.6,29.87,ESE,117,0.0,3.0,59,0.00,,---,0.00,VWS V14.01,2013-10-27 08:46:00,
2013-10-27 04:51:00,45.7,33.4,29.87,WNW,283,0.0,3.0,62,0.00,,---,0.00,VWS V14.01,2013-10-27 08:51:00,
2013-10-27 04:56:00,45.3,33.1,29.88,West,263,0.0,3.0,62,0.00,,---,0.00,VWS V14.01,2013-10-27 08:56:00,
2013-10-27 05:01:00,45.2,32.2,29.88,West,276,0.0,3.0,60,0.00,,---,0.00,VWS V14.01,2013-10-27 09:01:00,
2013-10-27 05:06:00,45.1,32.5,29.88,SSE,157,0.0,1.0,61,0.00,,---,0.00,VWS V14.01,2013-10-27 09:06:00,
2013-10-27 05:11:00,44.7,32.5,29.88,South,181,0.0,1.0,62,0.00,,---,0.00,VWS V14.01,2013-10-27 09:11:00,
2013-10-27 05:16:00,44.4,33.8,29.89,West,260,0.0,1.0,66,0.00,,---,0.00,VWS V14.01,2013-10-27 09:16:00,
2013-10-27 05:21:00,43.8,32.8,29.89,West,259,0.0,1.0,65,0.00,,---,0.00,VWS V14.01,2013-10-27 09:21:00,
2013-10-27 05:26:00,43.6,34.1,29.89,West,270,0.0,2.0,69,0.00,,---,0.00,VWS V14.01,2013-10-27 09:26:00,
2013-10-27 05:31:00,43.1,33.6,29.89,West,269,0.0,2.0,69,0.00,,---,0.00,VWS V14.01,2013-10-27 09:31:00,
2013-10-27 05:36:00,42.7,34.0,29.89,West,277,2.0,2.0,71,0.00,,---,0.00,VWS V14.01,2013-10-27 09:36:00,
2013-10-27 05:41:00,43.6,32.2,29.90,WNW,293,0.0,3.0,64,0.00,,---,0.00,VWS V14.01,2013-10-27 09:41:00,
2013-10-27 05:46:00,44.0,32.6,29.90,West,262,1.0,3.0,64,0.00,,---,0.00,VWS V14.01,2013-10-27 09:46:00,
2013-10-27 05:51:00,43.8,32.8,29.90,South,190,0.0,3.0,65,0.00,,---,0.00,VWS V14.01,2013-10-27 09:51:00,
2013-10-27 05:56:00,43.3,34.2,29.90,South,190,0.0,3.0,70,0.00,,---,0.00,VWS V14.01,2013-10-27 09:56:00,
2013-10-27 06:01:00,42.4,33.3,29.90,South,190,0.0,3.0,70,0.00,,---,0.00,VWS V14.01,2013-10-27 10:01:00,
2013-10-27 06:06:00,42.2,32.8,29.90,West,263,1.0,3.0,69,0.00,,---,0.00,VWS V14.01,2013-10-27 10:06:00,
2013-10-27 06:11:00,42.8,33.3,29.90,West,269,0.0,3.0,69,0.00,,---,0.00,VWS V14.01,2013-10-27 10:11:00,
2013-10-27 06:16:00,42.6,33.9,29.90,West,268,0.0,3.0,71,0.00,,---,0.00,VWS V14.01,2013-10-27 10:16:00,
2013-10-27 06:21:00,42.0,33.6,29.90,West,269,0.0,3.0,72,0.00,,---,0.00,VWS V14.01,2013-10-27 10:21:00,
2013-10-27 06:26:00,41.3,33.7,29.91,West,270,0.0,3.0,74,0.00,,---,0.00,VWS V14.01,2013-10-27 10:26:00,
2013-10-27 06:31:00,40.7,33.4,29.91,West,269,0.0,3.0,75,0.00,,---,0.00,VWS V14.01,2013-10-27 10:31:00,
2013-10-27 06:36:00,40.4,33.1,29.91,West,277,1.0,1.0,75,0.00,,---,0.00,VWS V14.01,2013-10-27 10:36:00,
2013-10-27 06:41:00,40.8,33.2,29.91,West,259,1.0,3.0,74,0.00,,---,0.00,VWS V14.01,2013-10-27 10:41:00,
2013-10-27 06:46:00,41.2,32.9,29.91,West,278,1.0,3.0,72,0.00,,---,0.00,VWS V14.01,2013-10-27 10:46:00,
2013-10-27 06:51:00,41.4,33.8,29.91,West,278,3.0,3.0,74,0.00,,---,0.00,VWS V14.01,2013-10-27 10:51:00,
2013-10-27 06:56:00,41.6,33.3,29.91,West,269,0.0,3.0,72,0.00,,---,0.00,VWS V14.01,2013-10-27 10:56:00,
2013-10-27 07:01:00,41.2,32.5,29.91,West,262,0.0,3.0,71,0.00,,---,0.00,VWS V14.01,2013-10-27 11:01:00,
2013-10-27 07:06:00,41.3,33.0,29.91,WNW,298,2.0,3.0,72,0.00,,---,0.00,VWS V14.01,2013-10-27 11:06:00,
2013-10-27 07:11:00,41.2,33.5,29.91,NW,311,2.0,3.0,74,0.00,,---,0.00,VWS V14.01,2013-10-27 11:11:00,
2013-10-27 07:16:00,41.7,33.0,29.91,WSW,248,1.0,3.0,71,0.00,,---,0.00,VWS V14.01,2013-10-27 11:16:00,
2013-10-27 07:21:00,42.9,32.7,29.92,WNW,290,1.0,7.0,67,0.00,,---,0.00,VWS V14.01,2013-10-27 11:21:00,
2013-10-27 07:26:00,43.6,33.4,29.92,West,260,2.0,7.0,67,0.00,,---,0.00,VWS V14.01,2013-10-27 11:26:00,
2013-10-27 07:31:00,43.9,32.9,29.92,West,274,0.0,7.0,65,0.00,,---,0.00,VWS V14.01,2013-10-27 11:31:00,
2013-10-27 07:36:00,43.8,32.8,29.93,WNW,283,1.0,1.0,65,0.00,,---,0.00,VWS V14.01,2013-10-27 11:36:00,
2013-10-27 07:41:00,43.8,33.2,29.93,West,277,1.0,2.0,66,0.00,,---,0.00,VWS V14.01,2013-10-27 11:41:00,
2013-10-27 07:46:00,43.5,33.3,29.93,NNW,334,0.0,2.0,67,0.00,,---,0.00,VWS V14.01,2013-10-27 11:46:00,
2013-10-27 07:51:00,43.0,33.5,29.93,West,280,0.0,2.0,69,0.00,,---,0.00,VWS V14.01,2013-10-27 11:51:00,
2013-10-27 07:56:00,42.9,33.8,29.93,West,273,0.0,2.0,70,0.00,,---,0.00,VWS V14.01,2013-10-27 11:56:00,
2013-10-27 08:01:00,43.1,33.3,29.94,WNW,288,0.0,3.0,68,0.00,,---,0.00,VWS V14.01,2013-10-27 12:01:00,
2013-10-27 08:06:00,43.4,33.6,29.94,WNW,292,0.0,2.0,68,0.00,,---,0.00,VWS V14.01,2013-10-27 12:06:00,
2013-10-27 08:11:00,43.5,33.3,29.95,NW,305,0.0,2.0,67,0.00,,---,0.00,VWS V14.01,2013-10-27 12:11:00,
2013-10-27 08:16:00,43.8,33.2,29.94,WNW,287,1.0,2.0,66,0.00,,---,0.00,VWS V14.01,2013-10-27 12:16:00,
2013-10-27 08:21:00,44.3,33.3,29.95,NW,322,1.0,4.0,65,0.00,,---,0.00,VWS V14.01,2013-10-27 12:21:00,
2013-10-27 08:26:00,44.7,33.7,29.95,NW,304,2.0,4.0,65,0.00,,---,0.00,VWS V14.01,2013-10-27 12:26:00,
2013-10-27 08:31:00,45.1,33.7,29.95,WNW,282,1.0,4.0,64,0.00,,---,0.00,VWS V14.01,2013-10-27 12:31:00,
2013-10-27 08:36:00,45.5,33.7,29.95,NW,314,1.0,6.0,63,0.00,,---,0.00,VWS V14.01,2013-10-27 12:36:00,
2013-10-27 08:41:00,45.6,33.8,29.95,NE,39,3.0,6.0,63,0.00,,---,0.00,VWS V14.01,2013-10-27 12:41:00,
2013-10-27 08:46:00,45.7,33.8,29.96,NE,36,2.0,6.0,63,0.00,,---,0.00,VWS V14.01,2013-10-27 12:46:00,
2013-10-27 08:51:00,45.8,33.5,29.96,WNW,288,2.0,6.0,62,0.00,,---,0.00,VWS V14.01,2013-10-27 12:51:00,
2013-10-27 08:56:00,46.2,33.5,29.96,NNW,327,2.0,6.0,61,0.00,,---,0.00,VWS V14.01,2013-10-27 12:56:00,
2013-10-27 09:01:00,46.4,33.7,29.96,SW,221,2.0,3.0,61,0.00,,---,0.00,VWS V14.01,2013-10-27 13:01:00,
2013-10-27 09:06:00,46.7,34.0,29.96,WNW,282,2.0,7.0,61,0.00,,---,0.00,VWS V14.01,2013-10-27 13:06:00,
2013-10-27 09:11:00,47.0,33.8,29.96,WSW,257,3.0,7.0,60,0.00,,---,0.00,VWS V14.01,2013-10-27 13:11:00,
2013-10-27 09:16:00,47.3,33.7,29.96,West,270,5.0,8.0,59,0.00,,---,0.00,VWS V14.01,2013-10-27 13:16:00,
2013-10-27 09:21:00,47.6,34.0,29.96,West,271,2.0,8.0,59,0.00,,---,0.00,VWS V14.01,2013-10-27 13:21:00,
2013-10-27 09:26:00,47.8,34.2,29.96,WSW,244,2.0,8.0,59,0.00,,---,0.00,VWS V14.01,2013-10-27 13:26:00,
2013-10-27 09:31:00,48.0,33.9,29.96,NE,36,3.0,4.0,58,0.00,,---,0.00,VWS V14.01,2013-10-27 13:31:00,
2013-10-27 09:36:00,48.1,34.0,29.97,WSW,243,2.0,6.0,58,0.00,,---,0.00,VWS V14.01,2013-10-27 13:36:00,
2013-10-27 09:41:00,48.3,33.8,29.97,NNE,25,1.0,9.0,57,0.00,,---,0.00,VWS V14.01,2013-10-27 13:41:00,
2013-10-27 09:46:00,48.5,34.0,29.97,WSW,258,5.0,9.0,57,0.00,,---,0.00,VWS V14.01,2013-10-27 13:46:00,
2013-10-27 09:51:00,48.6,33.6,29.97,West,280,6.0,9.0,56,0.00,,---,0.00,VWS V14.01,2013-10-27 13:51:00,
2013-10-27 09:56:00,48.7,34.2,29.97,West,266,2.0,9.0,57,0.00,,---,0.00,VWS V14.01,2013-10-27 13:56:00,
2013-10-27 10:01:00,48.9,33.9,29.97,WNW,291,5.0,5.0,56,0.00,,---,0.00,VWS V14.01,2013-10-27 14:01:00,
2013-10-27 10:06:00,49.1,33.7,29.97,NW,314,4.0,10.0,55,0.00,,---,0.00,VWS V14.01,2013-10-27 14:06:00,
2013-10-27 10:11:00,49.3,33.8,29.97,North,10,1.0,11.0,55,0.00,,---,0.00,VWS V14.01,2013-10-27 14:11:00,
2013-10-27 10:16:00,49.5,34.0,29.97,West,280,7.0,11.0,55,0.00,,---,0.00,VWS V14.01,2013-10-27 14:16:00,
2013-10-27 10:21:00,49.7,34.2,29.97,North,357,5.0,11.0,55,0.00,,---,0.00,VWS V14.01,2013-10-27 14:21:00,
2013-10-27 10:26:00,49.9,33.9,29.97,WSW,256,2.0,11.0,54,0.00,,---,0.00,VWS V14.01,2013-10-27 14:26:00,
2013-10-27 10:31:00,50.0,34.5,29.97,West,273,2.0,2.0,55,0.00,,---,0.00,VWS V14.01,2013-10-27 14:31:00,
2013-10-27 10:36:00,50.2,33.7,29.98,West,277,4.0,10.0,53,0.00,,---,0.00,VWS V14.01,2013-10-27 14:36:00,
2013-10-27 10:41:00,50.3,34.3,29.98,North,350,5.0,10.0,54,0.00,,---,0.00,VWS V14.01,2013-10-27 14:41:00,
2013-10-27 10:46:00,50.5,34.0,29.98,NNE,24,8.0,11.0,53,0.00,,---,0.00,VWS V14.01,2013-10-27 14:46:00,
2013-10-27 10:51:00,50.8,33.8,29.98,NNE,16,5.0,11.0,52,0.00,,---,0.00,VWS V14.01,2013-10-27 14:51:00,
2013-10-27 10:56:00,51.0,34.0,29.98,North,358,8.0,11.0,52,0.00,,---,0.00,VWS V14.01,2013-10-27 14:56:00,
2013-10-27 11:01:00,51.3,33.3,29.98,NNW,347,6.0,8.0,50,0.00,,---,0.00,VWS V14.01,2013-10-27 15:01:00,
2013-10-27 11:06:00,51.4,32.9,29.98,NW,312,11.0,11.0,49,0.00,,---,0.00,VWS V14.01,2013-10-27 15:06:00,
2013-10-27 11:11:00,51.5,34.0,29.98,NW,319,6.0,11.0,51,0.00,,---,0.00,VWS V14.01,2013-10-27 15:11:00,
2013-10-27 11:16:00,51.9,33.9,29.98,West,275,1.0,11.0,50,0.00,,---,0.00,VWS V14.01,2013-10-27 15:16:00,
2013-10-27 11:21:00,52.4,33.8,29.98,NW,315,2.0,11.0,49,0.00,,---,0.00,VWS V14.01,2013-10-27 15:21:00,
2013-10-27 11:26:00,52.5,33.4,29.98,West,276,5.0,11.0,48,0.00,,---,0.00,VWS V14.01,2013-10-27 15:26:00,
2013-10-27 11:31:00,52.5,32.9,29.98,West,280,4.0,6.0,47,0.00,,---,0.00,VWS V14.01,2013-10-27 15:31:00,
2013-10-27 11:36:00,52.7,33.0,29.98,WSW,253,7.0,9.0,47,0.00,,---,0.00,VWS V14.01,2013-10-27 15:36:00,
2013-10-27 11:41:00,52.5,33.4,29.98,NW,320,1.0,10.0,48,0.00,,---,0.00,VWS V14.01,2013-10-27 15:41:00,
2013-10-27 11:46:00,52.9,32.7,29.98,NW,319,1.0,12.0,46,0.00,,---,0.00,VWS V14.01,2013-10-27 15:46:00,
2013-10-27 11:51:00,53.0,33.3,29.98,North,1,2.0,12.0,47,0.00,,---,0.00,VWS V14.01,2013-10-27 15:51:00,
2013-10-27 11:56:00,53.0,32.8,29.98,WSW,253,3.0,12.0,46,0.00,,---,0.00,VWS V14.01,2013-10-27 15:56:00,
2013-10-27 12:01:00,53.4,33.7,29.98,NNW,328,5.0,9.0,47,0.00,,---,0.00,VWS V14.01,2013-10-27 16:01:00,
2013-10-27 12:06:00,53.3,32.5,29.98,West,274,3.0,13.0,45,0.00,,---,0.00,VWS V14.01,2013-10-27 16:06:00,
2013-10-27 12:11:00,53.2,33.0,29.98,West,274,2.0,13.0,46,0.00,,---,0.00,VWS V14.01,2013-10-27 16:11:00,
2013-10-27 12:16:00,53.5,33.8,29.97,WSW,253,1.0,13.0,47,0.00,,---,0.00,VWS V14.01,2013-10-27 16:16:00,
2013-10-27 12:21:00,54.1,32.7,29.97,West,263,5.0,13.0,44,0.00,,---,0.00,VWS V14.01,2013-10-27 16:21:00,
2013-10-27 12:26:00,54.0,32.6,29.97,NNW,345,3.0,13.0,44,0.00,,---,0.00,VWS V14.01,2013-10-27 16:26:00,
2013-10-27 12:31:00,54.0,32.6,29.97,WNW,303,3.0,7.0,44,0.00,,---,0.00,VWS V14.01,2013-10-27 16:31:00,
2013-10-27 12:36:00,54.4,33.0,29.97,WNW,298,5.0,9.0,44,0.00,,---,0.00,VWS V14.01,2013-10-27 16:36:00,
2013-10-27 12:41:00,54.2,32.8,29.97,SW,236,2.0,9.0,44,0.00,,---,0.00,VWS V14.01,2013-10-27 16:41:00,
2013-10-27 12:46:00,54.2,32.2,29.96,SW,222,3.0,9.0,43,0.00,,---,0.00,VWS V14.01,2013-10-27 16:46:00,
2013-10-27 12:51:00,54.3,32.3,29.96,West,270,7.0,9.0,43,0.00,,---,0.00,VWS V14.01,2013-10-27 16:51:00,
2013-10-27 12:56:00,54.5,32.5,29.96,South,184,2.0,9.0,43,0.00,,---,0.00,VWS V14.01,2013-10-27 16:56:00,
2013-10-27 13:01:00,54.6,32.0,29.96,West,274,5.0,5.0,42,0.00,,---,0.00,VWS V14.01,2013-10-27 17:01:00,
2013-10-27 13:06:00,54.6,32.6,29.96,WSW,253,1.0,8.0,43,0.00,,---,0.00,VWS V14.01,2013-10-27 17:06:00,
2013-10-27 13:11:00,54.8,32.8,29.96,WSW,253,2.0,8.0,43,0.00,,---,0.00,VWS V14.01,2013-10-27 17:11:00,
2013-10-27 13:16:00,54.9,31.7,29.96,West,263,5.0,10.0,41,0.00,,---,0.00,VWS V14.01,2013-10-27 17:16:00,
2013-10-27 13:21:00,54.7,31.5,29.96,NNE,21,1.0,10.0,41,0.00,,---,0.00,VWS V14.01,2013-10-27 17:21:00,
2013-10-27 13:26:00,55.1,31.8,29.96,North,352,4.0,10.0,41,0.00,,---,0.00,VWS V14.01,2013-10-27 17:26:00,
2013-10-27 13:31:00,54.9,31.7,29.96,NNE,24,3.0,3.0,41,0.00,,---,0.00,VWS V14.01,2013-10-27 17:31:00,
2013-10-27 13:36:00,54.8,32.8,29.96,WNW,288,3.0,6.0,43,0.00,,---,0.00,VWS V14.01,2013-10-27 17:36:00,
2013-10-27 13:41:00,54.3,32.3,29.95,NNW,333,7.0,8.0,43,0.00,,---,0.00,VWS V14.01,2013-10-27 17:41:00,
2013-10-27 13:47:00,54.6,32.0,29.95,West,268,6.0,8.0,42,0.00,,---,0.00,VWS V14.01,2013-10-27 17:47:00,
2013-10-27 13:52:00,55.1,32.4,29.95,WNW,282,2.0,8.0,42,0.00,,---,0.00,VWS V14.01,2013-10-27 17:52:00,
2013-10-27 13:57:00,55.5,32.8,29.95,NW,306,4.0,9.0,42,0.00,,---,0.00,VWS V14.01,2013-10-27 17:57:00,
2013-10-27 14:02:00,55.5,32.2,29.95,NW,317,5.0,5.0,41,0.00,,---,0.00,VWS V14.01,2013-10-27 18:02:00,
2013-10-27 14:07:00,54.9,31.7,29.95,West,274,3.0,9.0,41,0.00,,---,0.00,VWS V14.01,2013-10-27 18:07:00,
2013-10-27 14:12:00,54.6,32.0,29.95,NNE,22,3.0,9.0,42,0.00,,---,0.00,VWS V14.01,2013-10-27 18:12:00,
2013-10-27 14:17:00,54.9,32.3,29.95,NNW,335,6.0,9.0,42,0.00,,---,0.00,VWS V14.01,2013-10-27 18:17:00,
2013-10-27 14:22:00,54.7,32.1,29.95,WNW,302,3.0,9.0,42,0.00,,---,0.00,VWS V14.01,2013-10-27 18:22:00,
2013-10-27 14:27:00,54.5,31.9,29.95,West,266,3.0,9.0,42,0.00,,---,0.00,VWS V14.01,2013-10-27 18:27:00,
2013-10-27 14:32:00,54.2,31.6,29.96,NW,313,2.0,11.0,42,0.00,,---,0.00,VWS V14.01,2013-10-27 18:32:00,
2013-10-27 14:37:00,54.1,31.5,29.96,WSW,238,4.0,11.0,42,0.00,,---,0.00,VWS V14.01,2013-10-27 18:37:00,
2013-10-27 14:42:00,53.9,31.4,29.96,North,355,5.0,11.0,42,0.00,,---,0.00,VWS V14.01,2013-10-27 18:42:00,
2013-10-27 14:47:00,53.6,31.7,29.96,NW,308,2.0,11.0,43,0.00,,---,0.00,VWS V14.01,2013-10-27 18:47:00,
2013-10-27 14:52:00,53.4,31.5,29.97,West,262,3.0,11.0,43,0.00,,---,0.00,VWS V14.01,2013-10-27 18:52:00,
2013-10-27 14:57:00,53.8,31.9,29.97,WNW,298,2.0,11.0,43,0.00,,---,0.00,VWS V14.01,2013-10-27 18:57:00,
2013-10-27 15:02:00,54.2,31.0,29.96,NW,312,1.0,5.0,41,0.00,,---,0.00,VWS V14.01,2013-10-27 19:02:00,
2013-10-27 15:07:00,54.7,32.1,29.96,NW,309,5.0,6.0,42,0.00,,---,0.00,VWS V14.01,2013-10-27 19:07:00,
2013-10-27 15:12:00,54.7,31.5,29.97,NW,309,2.0,7.0,41,0.00,,---,0.00,VWS V14.01,2013-10-27 19:12:00,
2013-10-27 15:17:00,54.4,31.2,29.97,NNW,339,2.0,7.0,41,0.00,,---,0.00,VWS V14.01,2013-10-27 19:17:00,
2013-10-27 15:22:00,54.2,31.6,29.97,WNW,291,4.0,7.0,42,0.00,,---,0.00,VWS V14.01,2013-10-27 19:22:00,
2013-10-27 15:27:00,54.1,31.5,29.97,SW,235,2.0,8.0,42,0.00,,---,0.00,VWS V14.01,2013-10-27 19:27:00,
2013-10-27 15:32:00,54.0,31.5,29.97,West,280,2.0,7.0,42,0.00,,---,0.00,VWS V14.01,2013-10-27 19:32:00,
2013-10-27 15:37:00,54.0,31.5,29.97,NNW,342,1.0,9.0,42,0.00,,---,0.00,VWS V14.01,2013-10-27 19:37:00,
2013-10-27 15:42:00,54.2,31.6,29.97,West,262,2.0,10.0,42,0.00,,---,0.00,VWS V14.01,2013-10-27 19:42:00,
2013-10-27 15:47:00,54.0,31.5,29.97,WSW,257,1.0,10.0,42,0.00,,---,0.00,VWS V14.01,2013-10-27 19:47:00,
2013-10-27 15:52:00,54.4,31.2,29.97,SE,131,1.0,10.0,41,0.00,,---,0.00,VWS V14.01,2013-10-27 19:52:00,
2013-10-27 15:57:00,54.7,30.9,29.96,West,277,1.0,10.0,40,0.00,,---,0.00,VWS V14.01,2013-10-27 19:57:00,
2013-10-27 16:02:00,54.6,31.4,29.97,WSW,247,6.0,6.0,41,0.00,,---,0.00,VWS V14.01,2013-10-27 20:02:00,
2013-10-27 16:07:00,54.4,30.6,29.97,NW,312,7.0,7.0,40,0.00,,---,0.00,VWS V14.01,2013-10-27 20:07:00,
2013-10-27 16:12:00,54.3,30.5,29.98,SE,137,1.0,10.0,40,0.00,,---,0.00,VWS V14.01,2013-10-27 20:12:00,
2013-10-27 16:17:00,54.6,30.8,29.98,West,259,7.0,10.0,40,0.00,,---,0.00,VWS V14.01,2013-10-27 20:17:00,
2013-10-27 16:22:00,54.5,30.1,29.98,West,270,6.0,11.0,39,0.00,,---,0.00,VWS V14.01,2013-10-27 20:22:00,
2013-10-27 16:27:00,54.5,30.7,29.98,WSW,252,6.0,11.0,40,0.00,,---,0.00,VWS V14.01,2013-10-27 20:27:00,
2013-10-27 16:32:00,54.2,30.4,29.98,WSW,253,0.0,3.0,40,0.00,,---,0.00,VWS V14.01,2013-10-27 20:32:00,
2013-10-27 16:37:00,54.3,31.1,29.99,West,270,4.0,4.0,41,0.00,,---,0.00,VWS V14.01,2013-10-27 20:37:00,
2013-10-27 16:42:00,54.4,30.6,29.99,West,260,1.0,5.0,40,0.00,,---,0.00,VWS V14.01,2013-10-27 20:42:00,
2013-10-27 16:47:00,54.1,29.7,29.98,West,278,4.0,6.0,39,0.00,,---,0.00,VWS V14.01,2013-10-27 20:47:00,
2013-10-27 16:52:00,53.9,30.1,29.98,WNW,287,0.0,6.0,40,0.00,,---,0.00,VWS V14.01,2013-10-27 20:52:00,
2013-10-27 16:57:00,53.7,30.6,29.99,West,276,3.0,6.0,41,0.00,,---,0.00,VWS V14.01,2013-10-27 20:57:00,
2013-10-27 17:02:00,53.6,29.9,29.99,NW,309,0.0,2.0,40,0.00,,---,0.00,VWS V14.01,2013-10-27 21:02:00,
2013-10-27 17:07:00,53.5,30.4,29.99,WNW,302,1.0,5.0,41,0.00,,---,0.00,VWS V14.01,2013-10-27 21:07:00,
2013-10-27 17:12:00,53.6,30.5,29.99,West,270,3.0,5.0,41,0.00,,---,0.00,VWS V14.01,2013-10-27 21:12:00,
2013-10-27 17:17:00,53.7,31.2,29.99,WSW,239,3.0,5.0,42,0.00,,---,0.00,VWS V14.01,2013-10-27 21:17:00,
2013-10-27 17:22:00,53.6,30.5,29.99,WSW,245,4.0,5.0,41,0.00,,---,0.00,VWS V14.01,2013-10-27 21:22:00,
2013-10-27 17:27:00,53.4,30.9,29.99,WSW,249,1.0,6.0,42,0.00,,---,0.00,VWS V14.01,2013-10-27 21:27:00,
2013-10-27 17:32:00,53.5,31.6,30.00,NW,309,0.0,0.0,43,0.00,,---,0.00,VWS V14.01,2013-10-27 21:32:00,
2013-10-27 17:37:00,53.3,30.8,30.00,WSW,253,3.0,5.0,42,0.00,,---,0.00,VWS V14.01,2013-10-27 21:37:00,
2013-10-27 17:42:00,53.0,30.5,30.00,West,262,2.0,5.0,42,0.00,,---,0.00,VWS V14.01,2013-10-27 21:42:00,
2013-10-27 17:47:00,52.8,30.9,30.01,SW,231,1.0,5.0,43,0.00,,---,0.00,VWS V14.01,2013-10-27 21:47:00,
2013-10-27 17:52:00,52.7,30.9,30.01,NW,309,1.0,8.0,43,0.00,,---,0.00,VWS V14.01,2013-10-27 21:52:00,
2013-10-27 17:57:00,52.6,30.8,30.01,West,275,3.0,8.0,43,0.00,,---,0.00,VWS V14.01,2013-10-27 21:57:00,
2013-10-27 18:02:00,52.5,31.2,30.02,WNW,292,0.0,0.0,44,0.00,,---,0.00,VWS V14.01,2013-10-27 22:02:00,
2013-10-27 18:07:00,52.2,31.0,30.02,West,273,1.0,4.0,44,0.00,,---,0.00,VWS V14.01,2013-10-27 22:07:00,
2013-10-27 18:12:00,52.2,31.0,30.02,SSE,156,0.0,4.0,44,0.00,,---,0.00,VWS V14.01,2013-10-27 22:12:00,
2013-10-27 18:17:00,52.1,32.5,30.02,WNW,285,0.0,4.0,47,0.00,,---,0.00,VWS V14.01,2013-10-27 22:17:00,
2013-10-27 18:22:00,51.8,32.2,30.02,WNW,285,0.0,4.0,47,0.00,,---,0.00,VWS V14.01,2013-10-27 22:22:00,
2013-10-27 18:27:00,51.7,31.6,30.02,West,263,0.0,4.0,46,0.00,,---,0.00,VWS V14.01,2013-10-27 22:27:00,
2013-10-27 18:32:00,51.6,31.5,30.03,West,263,0.0,0.0,46,0.00,,---,0.00,VWS V14.01,2013-10-27 22:32:00,
2013-10-27 18:37:00,51.5,32.0,30.03,West,264,0.0,0.0,47,0.00,,---,0.00,VWS V14.01,2013-10-27 22:37:00,
2013-10-27 18:42:00,51.1,32.6,30.03,West,264,0.0,0.0,49,0.00,,---,0.00,VWS V14.01,2013-10-27 22:42:00,
2013-10-27 18:47:00,50.8,31.8,30.03,West,263,0.0,0.0,48,0.00,,---,0.00,VWS V14.01,2013-10-27 22:47:00,
2013-10-27 18:52:00,50.4,33.0,30.04,West,263,0.0,0.0,51,0.00,,---,0.00,VWS V14.01,2013-10-27 22:52:00,
2013-10-27 18:57:00,49.9,33.5,30.04,West,264,0.0,0.0,53,0.00,,---,0.00,VWS V14.01,2013-10-27 22:57:00,
2013-10-27 19:02:00,49.4,32.5,30.04,West,263,0.0,0.0,52,0.00,,---,0.00,VWS V14.01,2013-10-27 23:02:00,
2013-10-27 19:07:00,48.9,33.5,30.04,West,263,0.0,0.0,55,0.00,,---,0.00,VWS V14.01,2013-10-27 23:07:00,
2013-10-27 19:12:00,48.3,33.8,30.05,West,263,0.0,0.0,57,0.00,,---,0.00,VWS V14.01,2013-10-27 23:12:00,
2013-10-27 19:17:00,47.7,32.8,30.05,West,263,0.0,0.0,56,0.00,,---,0.00,VWS V14.01,2013-10-27 23:17:00,
2013-10-27 19:22:00,47.1,33.1,30.05,West,263,0.0,0.0,58,0.00,,---,0.00,VWS V14.01,2013-10-27 23:22:00,
2013-10-27 19:27:00,46.7,33.2,30.05,West,263,0.0,0.0,59,0.00,,---,0.00,VWS V14.01,2013-10-27 23:27:00,
2013-10-27 19:32:00,46.2,32.7,30.05,West,263,0.0,0.0,59,0.00,,---,0.00,VWS V14.01,2013-10-27 23:32:00,
2013-10-27 19:37:00,45.8,32.7,30.05,West,263,0.0,0.0,60,0.00,,---,0.00,VWS V14.01,2013-10-27 23:37:00,
2013-10-27 19:42:00,45.5,33.2,30.06,West,263,0.0,0.0,62,0.00,,---,0.00,VWS V14.01,2013-10-27 23:42:00,
2013-10-27 19:47:00,45.2,33.8,30.06,West,263,0.0,0.0,64,0.00,,---,0.00,VWS V14.01,2013-10-27 23:47:00,
2013-10-27 19:52:00,45.0,34.0,30.06,SW,232,0.0,0.0,65,0.00,,---,0.00,VWS V14.01,2013-10-27 23:52:00,
2013-10-27 19:57:00,44.7,34.0,30.06,SW,232,0.0,0.0,66,0.00,,---,0.00,VWS V14.01,2013-10-27 23:57:00,
2013-10-27 20:02:00,44.4,34.5,30.06,SW,232,0.0,0.0,68,0.00,,---,0.00,VWS V14.01,2013-10-28 00:02:00,
2013-10-27 20:07:00,44.0,34.5,30.06,SW,232,0.0,0.0,69,0.00,,---,0.00,VWS V14.01,2013-10-28 00:07:00,
2013-10-27 20:12:00,43.7,34.6,30.07,SW,232,0.0,0.0,70,0.00,,---,0.00,VWS V14.01,2013-10-28 00:12:00,
2013-10-27 20:17:00,43.3,34.2,30.07,SW,232,0.0,0.0,70,0.00,,---,0.00,VWS V14.01,2013-10-28 00:17:00,
2013-10-27 20:22:00,43.0,34.2,30.07,SW,232,0.0,0.0,71,0.00,,---,0.00,VWS V14.01,2013-10-28 00:22:00,
2013-10-27 20:27:00,42.8,34.1,30.07,SW,232,0.0,0.0,71,0.00,,---,0.00,VWS V14.01,2013-10-28 00:27:00,
2013-10-27 20:32:00,42.5,34.1,30.08,SW,232,0.0,0.0,72,0.00,,---,0.00,VWS V14.01,2013-10-28 00:32:00,
2013-10-27 20:37:00,42.2,34.2,30.08,SW,232,0.0,0.0,73,0.00,,---,0.00,VWS V14.01,2013-10-28 00:37:00,
2013-10-27 20:42:00,41.9,34.2,30.08,SW,232,0.0,0.0,74,0.00,,---,0.00,VWS V14.01,2013-10-28 00:42:00,
2013-10-27 20:47:00,41.6,34.3,30.08,SW,232,0.0,0.0,75,0.00,,---,0.00,VWS V14.01,2013-10-28 00:47:00,
2013-10-27 20:52:00,41.4,34.4,30.09,SW,232,0.0,0.0,76,0.00,,---,0.00,VWS V14.01,2013-10-28 00:52:00,
2013-10-27 20:57:00,41.1,34.1,30.09,SW,232,0.0,0.0,76,0.00,,---,0.00,VWS V14.01,2013-10-28 00:57:00,
2013-10-27 21:02:00,40.8,33.8,30.09,SW,232,0.0,0.0,76,0.00,,---,0.00,VWS V14.01,2013-10-28 01:02:00,
2013-10-27 21:07:00,40.6,34.0,30.09,SW,232,0.0,0.0,77,0.00,,---,0.00,VWS V14.01,2013-10-28 01:07:00,
2013-10-27 21:12:00,40.4,33.8,30.09,SW,232,0.0,0.0,77,0.00,,---,0.00,VWS V14.01,2013-10-28 01:12:00,
2013-10-27 21:17:00,40.2,33.6,30.09,SW,232,0.0,0.0,77,0.00,,---,0.00,VWS V14.01,2013-10-28 01:17:00,
2013-10-27 21:22:00,40.0,33.7,30.09,SW,232,0.0,0.0,78,0.00,,---,0.00,VWS V14.01,2013-10-28 01:22:00,
2013-10-27 21:27:00,39.8,33.8,30.09,SW,232,0.0,0.0,79,0.00,,---,0.00,VWS V14.01,2013-10-28 01:27:00,
2013-10-27 21:32:00,39.7,34.0,30.09,SW,232,0.0,0.0,80,0.00,,---,0.00,VWS V14.01,2013-10-28 01:32:00,
2013-10-27 21:37:00,39.4,34.1,30.10,SW,232,0.0,0.0,81,0.00,,---,0.00,VWS V14.01,2013-10-28 01:37:00,
2013-10-27 21:42:00,39.2,34.2,30.10,SW,232,0.0,0.0,82,0.00,,---,0.00,VWS V14.01,2013-10-28 01:42:00,
2013-10-27 21:47:00,39.0,34.3,30.11,SW,232,0.0,0.0,83,0.00,,---,0.00,VWS V14.01,2013-10-28 01:47:00,
2013-10-27 21:52:00,38.8,34.1,30.11,SSE,159,1.0,1.0,83,0.00,,---,0.00,VWS V14.01,2013-10-28 01:52:00,
2013-10-27 21:57:00,38.6,33.9,30.11,SSE,159,0.0,1.0,83,0.00,,---,0.00,VWS V14.01,2013-10-28 01:57:00,
2013-10-27 22:02:00,38.4,33.7,30.12,SSE,159,0.0,0.0,83,0.00,,---,0.00,VWS V14.01,2013-10-28 02:02:00,
2013-10-27 22:07:00,38.4,34.0,30.12,SSE,160,0.0,0.0,84,0.00,,---,0.00,VWS V14.01,2013-10-28 02:07:00,
2013-10-27 22:12:00,38.2,34.1,30.12,SSE,160,0.0,0.0,85,0.00,,---,0.00,VWS V14.01,2013-10-28 02:12:00,
2013-10-27 22:17:00,38.0,33.9,30.12,SSE,161,0.0,0.0,85,0.00,,---,0.00,VWS V14.01,2013-10-28 02:17:00,
2013-10-27 22:22:00,37.8,33.7,30.12,SSE,159,0.0,0.0,85,0.00,,---,0.00,VWS V14.01,2013-10-28 02:22:00,
2013-10-27 22:27:00,37.7,33.6,30.12,SSE,159,0.0,0.0,85,0.00,,---,0.00,VWS V14.01,2013-10-28 02:27:00,
2013-10-27 22:32:00,37.5,33.4,30.13,SSE,159,0.0,0.0,85,0.00,,---,0.00,VWS V14.01,2013-10-28 02:32:00,
2013-10-27 22:37:00,37.4,33.6,30.13,SSE,159,0.0,0.0,86,0.00,,---,0.00,VWS V14.01,2013-10-28 02:37:00,
2013-10-27 22:42:00,37.4,33.6,30.13,SSE,159,0.0,0.0,86,0.00,,---,0.00,VWS V14.01,2013-10-28 02:42:00,
2013-10-27 22:47:00,37.3,33.8,30.13,SSE,159,0.0,0.0,87,0.00,,---,0.00,VWS V14.01,2013-10-28 02:47:00,
2013-10-27 22:52:00,37.2,33.7,30.13,SSE,159,0.0,0.0,87,0.00,,---,0.00,VWS V14.01,2013-10-28 02:52:00,
2013-10-27 22:57:00,37.1,33.9,30.13,SSE,159,0.0,0.0,88,0.00,,---,0.00,VWS V14.01,2013-10-28 02:57:00,
2013-10-27 23:02:00,36.9,33.7,30.13,SSE,159,0.0,0.0,88,0.00,,---,0.00,VWS V14.01,2013-10-28 03:02:00,
2013-10-27 23:07:00,36.8,33.6,30.13,SSE,159,0.0,0.0,88,0.00,,---,0.00,VWS V14.01,2013-10-28 03:07:00,
2013-10-27 23:12:00,36.6,33.4,30.13,SSE,159,0.0,0.0,88,0.00,,---,0.00,VWS V14.01,2013-10-28 03:12:00,
2013-10-27 23:17:00,36.5,33.6,30.13,SSE,159,0.0,0.0,89,0.00,,---,0.00,VWS V14.01,2013-10-28 03:17:00,
2013-10-27 23:22:00,36.4,33.5,30.13,SSE,159,0.0,0.0,89,0.00,,---,0.00,VWS V14.01,2013-10-28 03:22:00,
2013-10-27 23:27:00,36.2,33.3,30.14,SSE,159,0.0,0.0,89,0.00,,---,0.00,VWS V14.01,2013-10-28 03:27:00,
2013-10-27 23:32:00,36.0,33.1,30.14,SSE,159,0.0,0.0,89,0.00,,---,0.00,VWS V14.01,2013-10-28 03:32:00,
2013-10-27 23:37:00,35.9,33.3,30.14,SSE,159,0.0,0.0,90,0.00,,---,0.00,VWS V14.01,2013-10-28 03:37:00,
2013-10-27 23:42:00,35.7,33.1,30.14,SSE,159,0.0,0.0,90,0.00,,---,0.00,VWS V14.01,2013-10-28 03:42:00,
2013-10-27 23:47:00,35.6,33.0,30.14,SSE,159,0.0,0.0,90,0.00,,---,0.00,VWS V14.01,2013-10-28 03:47:00,
2013-10-27 23:53:00,35.5,32.9,30.14,SSE,159,0.0,0.0,90,0.00,,---,0.00,VWS V14.01,2013-10-28 03:53:00,
2013-10-27 23:58:00,35.5,33.1,30.14,SSE,159,0.0,0.0,91,0.00,,---,0.00,VWS V14.01,2013-10-28 03:58:00,